Home   Weather   Bakersfield   Past weeks

Flag for USA Past Weather in Bakersfield, California, USA — Yesterday and Last 2 Weeks

Now
92 °F

Clear.


Feels Like: 89 °F
Forecast: 74 / 100 °F
Wind: 12 mph from Northwest

Location: Meadows Field

Current Time: Jul 23, 2017 at 9:54:43 pm

Latest Report: Jul 23, 2017 at 8:54 pm


Visibility: 10 mi

Pressure: 29.71 "Hg

Humidity: 24%

Dew Point: 50 °F

Location of BakersfieldLocation

Past Weather in Bakersfield — Graph

°F

Bakersfield Temperature Yesterday

Maximum temperature yesterday: 100 °F (at 3:54 pm)
Minimum temperature yesterday: 75 °F (at 3:54 am)
Average temperature yesterday: 87 °F

High & Low Weather Summary for the Past Weeks

 TemperatureHumidityPressure
High106 °F (Jul 9, 5:54 pm)58% (Jul 15, 4:54 am)29.98 "Hg (Jul 15, 4:54 am)
Low71 °F (Jul 19, 3:54 am)13% (Jul 9, 5:54 pm)29.67 "Hg (Jul 23, 6:54 pm)
Average89 °F29%29.85 "Hg
* Reported Jul 8 7:54 pm — Jul 23 7:54 pm, Bakersfield. Weather by CustomWeather, © 2017

Note: Actual official high and low records may vary slightly from our data, if they occured in-between our weather recording intervals... More about our weather records

Advertising

Bakersfield Weather History for the Previous 24 Hours

Scroll right to see more
 ConditionsComfort  
Time TempWeatherWind HumidityBarometerVisibility
7:54 pm
Sun, Jul 23
99 °FPassing clouds.8 mph21%29.68 "Hg10 mi
6:54 pm104 °FPartly sunny.12 mph16%29.67 "Hg10 mi
5:54 pm105 °FScattered clouds.10 mph16%29.67 "Hg10 mi
4:54 pm104 °FScattered clouds.8 mph18%29.68 "Hg10 mi
3:54 pm104 °FScattered clouds.12 mph18%29.69 "Hg10 mi
2:54 pm103 °FPassing clouds.9 mph20%29.72 "Hg10 mi
1:54 pm100 °FSunny.10 mph23%29.74 "Hg10 mi
12:54 pm99 °FSunny.8 mph22%29.76 "Hg10 mi
11:54 am97 °FSunny.8 mph24%29.78 "Hg10 mi
10:54 am94 °FSunny.8 mph28%29.79 "Hg10 mi
9:54 am92 °FSunny.6 mph28%29.79 "Hg10 mi
8:54 am87 °FSunny.No wind31%29.80 "Hg10 mi
7:54 am83 °FSunny.6 mph34%29.80 "Hg10 mi
6:54 am81 °FSunny.3 mph38%29.79 "Hg10 mi
5:54 am79 °FClear.No wind41%29.79 "Hg10 mi
4:54 am80 °FClear.3 mph39%29.78 "Hg10 mi
3:54 am80 °FClear.No wind38%29.78 "Hg10 mi
2:54 am83 °FClear.5 mph36%29.78 "Hg10 mi
1:54 am84 °FClear.3 mph33%29.78 "Hg10 mi
12:54 am86 °FClear.5 mph33%29.80 "Hg10 mi
11:54 pm
Sat, Jul 22
87 °FClear.No wind32%29.80 "Hg10 mi
10:54 pm84 °FClear.3 mph35%29.80 "Hg10 mi
9:54 pm88 °FClear.5 mph30%29.80 "Hg10 mi
Weather by CustomWeather, © 2017

See weather overviewHow to use our weather pages